Orbital Elements at Epoch 2459000.5 (2020-May-31.0) TDB
Reference: JPL 19 (heliocentric ecliptic J2000)
Element | Value | Uncertainty (1-sigma) | Units |
e | .1241377184716042 | 6.3343e-08 | |
a | 2.397883083435284 | 1.4592e-08 | au |
q | 2.100215348295973 | 1.5051e-07 | au |
i | 7.008628164417595 | 4.4402e-06 | deg |
node | 130.4211290490015 | 4.4787e-05 | deg |
peri | 223.496733540884 | 4.8703e-05 | deg |
M | 213.5995129815771 | 2.3307e-05 | deg |
tp | 2459552.044366857023 (2021-Dec-03.54436686) | 9.1156e-05 | TDB |
period | 1356.252128065271 3.71 | 1.238e-05 3.389e-08 | d yr |
n | .2654373715258602 | 2.4229e-09 | deg/d |
Q | 2.695550818574596 | 1.6403e-08 | au |
|
| | Orbit Determination Parameters
Additional Information
|